Weather History for 10866 - November, 2013

Change the Weather History Date:

Saturday, November 23, 2013

  Actual Average Record
Temperature  
Mean Temperature 40 °F -  
Max Temperature 42 °F 37 °F - ()
Min Temperature 39 °F 26 °F - ()
Degree Days  
Heating Degree Days 24    
Moisture  
Dew Point 39 °F    
Average Humidity 97    
Maximum Humidity 100    
Minimum Humidity 93    
Precipitation  
Precipitation 0.00 in - - ()
Sea Level Pressure  
Sea Level Pressure 29.79 in    
Wind  
Wind Speed 7 mph ()    
Max Wind Speed 15 mph    
Max Gust Speed -    
Visibility 4.3 miles    
Events Rain    
T = Trace of Precipitation, MM = Missing Value Source: Averaged Metar Reports

Daily Weather History Graph

Daily Weather History Graph

Search for Another Location

Airport or City:

Trip Planner

Search our weather history database for the weather conditions in past years. The results will help you decide how hot, cold, wet, or windy it might be!

Date:

Astronomy

Nov. 23, 2013 Rise Set
Actual Time 7:32 AM CET 4:25 PM CET
Civil Twilight 6:57 AM CET 5:01 PM CET
Nautical Twilight 6:18 AM CET 5:39 PM CET
Astronomical Twilight 5:41 AM CET 6:16 PM CET
Moon 9:48 PM CET (11/23) 11:31 AM CET (11/23)
Length of Visible Light 10h 03m
Length of Day
8h 53m
Waning Gibbous, 72% of the Moon is Illuminated
Nov 23
Waning Gibbous
Nov 25
Last Quarter
Dec 3
New
Dec 9
First Quarter
Dec 17
Full

Hourly Weather History & Observations

Time (CET) Temp. Windchill Dew Point Humidity Pressure Visibility Wind Dir Wind Speed Gust Speed Precip Events Conditions
12:20 AM 39.2 °F 35.9 °F 37.4 °F 93% 29.74 in 6.2 mi NE 4.6 mph - N/A   Overcast
12:50 AM 39.2 °F 35.0 °F 37.4 °F 93% 29.74 in 6.2 mi NNE 5.8 mph - N/A   Overcast
1:20 AM 39.2 °F 34.2 °F 37.4 °F 93% 29.74 in 6.2 mi NNE 6.9 mph - N/A   Overcast
1:50 AM 39.2 °F 33.6 °F 37.4 °F 93% 29.77 in 6.2 mi NE 8.1 mph - N/A   Overcast
2:20 AM 39.2 °F 34.2 °F 39.2 °F 100% 29.77 in 3.7 mi NE 6.9 mph - N/A   Overcast
2:50 AM 39.2 °F 35.9 °F 39.2 °F 100% 29.77 in 3.7 mi ENE 4.6 mph - N/A   Overcast
3:20 AM 39.2 °F 35.9 °F 39.2 °F 100% 29.77 in 3.7 mi NE 4.6 mph - N/A   Light Drizzle
3:50 AM 39.2 °F 37.0 °F 39.2 °F 100% 29.74 in 3.7 mi NNE 3.5 mph - N/A   Overcast
4:20 AM 39.2 °F 35.9 °F 39.2 °F 100% 29.77 in 3.7 mi NNE 4.6 mph - N/A   Overcast
4:50 AM 39.2 °F 35.9 °F 39.2 °F 100% 29.77 in 3.7 mi NNE 4.6 mph - N/A   Light Drizzle
5:20 AM 39.2 °F 35.0 °F 39.2 °F 100% 29.77 in 1.9 mi North 5.8 mph - N/A   Drizzle
5:50 AM 39.2 °F 35.9 °F 39.2 °F 100% 29.77 in 1.9 mi NNE 4.6 mph - N/A Rain Light Rain
6:20 AM 39.2 °F 35.9 °F 39.2 °F 100% 29.77 in 2.5 mi North 4.6 mph - N/A Rain Rain
6:50 AM 39.2 °F 35.0 °F 39.2 °F 100% 29.77 in 2.5 mi NNE 5.8 mph - N/A Rain Rain
7:20 AM 39.2 °F 34.2 °F 39.2 °F 100% 29.77 in 2.5 mi NNE 6.9 mph - N/A Rain Rain
7:50 AM 39.2 °F 35.0 °F 39.2 °F 100% 29.77 in 2.5 mi NNE 5.8 mph - N/A Rain Light Rain
8:20 AM 39.2 °F 34.2 °F 39.2 °F 100% 29.77 in 2.8 mi NNE 6.9 mph - N/A Rain Light Rain
8:50 AM 39.2 °F 34.2 °F 39.2 °F 100% 29.77 in 2.5 mi NNE 6.9 mph - N/A Rain Light Rain
9:20 AM 41.0 °F 35.2 °F 41.0 °F 100% 29.77 in 2.5 mi NNE 9.2 mph - N/A Rain Light Rain
9:50 AM 41.0 °F 34.3 °F 41.0 °F 100% 29.77 in 2.5 mi NNE 11.5 mph - N/A Rain Light Rain
10:20 AM 41.0 °F 33.9 °F 41.0 °F 100% 29.80 in 2.5 mi NE 12.7 mph - N/A Rain Light Rain
10:50 AM 41.0 °F 33.9 °F 41.0 °F 100% 29.80 in 2.8 mi NNE 12.7 mph - N/A Rain Light Rain
11:20 AM 41.0 °F 33.9 °F 41.0 °F 100% 29.77 in 3.1 mi NNE 12.7 mph - N/A   Light Drizzle
11:50 AM 42.8 °F 36.2 °F 42.8 °F 100% 29.77 in 3.1 mi NE 12.7 mph - N/A   Light Drizzle
12:20 PM 42.8 °F 36.2 °F 42.8 °F 100% 29.77 in 3.7 mi NE 12.7 mph - N/A   Mostly Cloudy
12:50 PM 42.8 °F 36.2 °F 41.0 °F 93% 29.77 in 3.7 mi NNE 12.7 mph - N/A   Light Drizzle
1:20 PM 42.8 °F 36.2 °F 41.0 °F 93% 29.77 in 3.7 mi NNE 12.7 mph - N/A Rain Light Rain
1:50 PM 42.8 °F 36.6 °F 41.0 °F 93% 29.77 in 4.3 mi NNE 11.5 mph - N/A Rain Light Rain
2:20 PM 42.8 °F 35.8 °F 41.0 °F 93% 29.77 in 4.3 mi NE 13.8 mph - N/A Rain Light Rain
2:50 PM 42.8 °F 36.2 °F 41.0 °F 93% 29.80 in 4.3 mi NNE 12.7 mph - N/A Rain Light Rain
3:20 PM 41.0 °F 33.5 °F 41.0 °F 100% 29.80 in 5.0 mi NNE 13.8 mph - N/A Rain Light Rain
3:50 PM 41.0 °F 34.3 °F 39.2 °F 93% 29.80 in 5.0 mi NNE 11.5 mph - N/A   Mostly Cloudy
4:20 PM 41.0 °F 33.1 °F 39.2 °F 93% 29.80 in 5.0 mi NNE 15.0 mph - N/A   Overcast
4:50 PM 41.0 °F 33.9 °F 39.2 °F 93% 29.80 in 5.0 mi NE 12.7 mph - N/A   Overcast
5:20 PM 41.0 °F 33.9 °F 39.2 °F 93% 29.80 in 5.0 mi NE 12.7 mph - N/A   Overcast
5:50 PM 41.0 °F 34.7 °F 39.2 °F 93% 29.80 in 5.0 mi NNE 10.4 mph - N/A   Overcast
6:20 PM 41.0 °F 33.9 °F 39.2 °F 93% 29.83 in 5.6 mi NNE 12.7 mph - N/A   Mostly Cloudy
6:50 PM 41.0 °F 34.7 °F 39.2 °F 93% 29.83 in 5.6 mi NNE 10.4 mph - N/A   Overcast
7:20 PM 41.0 °F 34.7 °F 39.2 °F 93% 29.83 in 5.6 mi NE 10.4 mph - N/A Rain Light Rain
7:50 PM 39.2 °F 33.0 °F 39.2 °F 100% 29.83 in 5.6 mi NNE 9.2 mph - N/A Rain Rain
8:20 PM 39.2 °F 33.6 °F 39.2 °F 100% 29.83 in 5.6 mi NNE 8.1 mph - N/A Rain Light Rain
8:50 PM 39.2 °F 33.0 °F 39.2 °F 100% 29.83 in 5.6 mi NNE 9.2 mph - N/A   Light Drizzle
9:20 PM 39.2 °F 33.0 °F 37.4 °F 93% 29.86 in 6.2 mi NNE 9.2 mph - N/A   Mostly Cloudy
9:50 PM 39.2 °F 33.0 °F 37.4 °F 93% 29.86 in 6.2 mi NNE 9.2 mph - N/A Rain Light Rain
10:20 PM 39.2 °F 33.0 °F 37.4 °F 93% 29.86 in 6.2 mi NNE 9.2 mph - N/A Rain Light Rain
10:50 PM 39.2 °F 34.2 °F 37.4 °F 93% 29.86 in 6.2 mi North 6.9 mph - N/A   Mostly Cloudy
11:20 PM 39.2 °F 34.2 °F 37.4 °F 93% 29.86 in 6.2 mi NNE 6.9 mph - N/A   Mostly Cloudy
11:50 PM 39.2 °F 35.9 °F 37.4 °F 93% 29.86 in 6.2 mi NNE 4.6 mph - N/A   Mostly Cloudy